STARLINK-34742

Last updated on Tue Aug 26 2025 00:02:05 GMT+0000 (Coordinated Universal Time)

1 64942U 25158L 25237.62868351 .00044294 00000+0 11284-2 0 9994 2 64942 97.6020 100.1937 0002739 100.7696 259.3858 15.39420904 5813
UTC large
Height (km)
Speed (km/s)
/
Latitude / Longitude
Inclination (degrees)
Orbital Period (minutes)
Azimuth
Elevation
Range (km)
Doppler Factor

Next 0 passes for location: London (51.5072 / 0.1276)

Sorry there are no passes over London.
STARLINK-34742